Location: Dziekanowice
(50.3533°N, 20.3878°E)
Time: 11:42:12
(UTC+02:00)

ISS - Visible Passes

Search period start: 22 September 2018 00:00
Search period end: 02 October 2018 00:00
Orbit: 403 x 408 km, 51.6° (Epoch: 22 September)

Date Brightness Start Highest point End Pass type
(mag) Time Alt. Az. Time Alt. Az. Time Alt. Az.
22 Sep -1.8 20:27:42 10° SSW 20:28:50 17° SSW 20:28:50 17° SSW visible
23 Sep -2.1 19:36:32 10° S 19:38:50 18° SE 19:39:35 16° ESE visible
23 Sep -1.1 21:11:38 10° WSW 21:12:17 15° WSW 21:12:17 15° WSW visible
24 Sep -3.4 20:19:52 10° SW 20:22:49 46° S 20:22:49 46° S visible
25 Sep -2.9 19:28:16 10° SSW 19:31:14 32° SSE 19:33:12 17° E visible
25 Sep -1.8 21:04:15 10° WSW 21:05:53 27° W 21:05:53 27° W visible
26 Sep -3.9 20:12:19 10° WSW 20:15:37 77° SSE 20:16:08 59° E visible
27 Sep -3.6 19:20:28 10° SW 19:23:43 55° SSE 19:26:17 15° E visible
27 Sep -2.2 20:56:54 10° W 20:58:57 34° W 20:58:57 34° W visible
28 Sep -3.8 20:04:54 10° W 20:08:13 78° N 20:09:02 47° ENE visible
28 Sep -0.4 21:41:32 10° WNW 21:41:42 11° WNW 21:41:42 11° WNW visible
29 Sep -3.8 19:12:55 10° WSW 19:16:13 85° SSE 19:19:03 13° ENE visible
29 Sep -2.3 20:49:32 10° W 20:51:43 37° WNW 20:51:43 37° WNW visible
30 Sep -3.7 19:57:30 10° W 20:00:47 68° N 20:01:42 43° ENE visible
30 Sep -0.4 21:34:05 10° WNW 21:34:21 12° WNW 21:34:21 12° WNW visible
01 Oct -3.7 19:05:26 10° W 19:08:45 74° N 19:11:39 13° ENE visible
01 Oct -2.5 20:42:04 10° WNW 20:44:18 40° WNW 20:44:18 40° WNW visible
